EA3GKP-7 Weather Reports


time (UTC)temp
F
wind
direction
speed
knots
gust
knots
rain 1hr
in
rain 24hr
in
rain mn
in
humidity
%
barometer
mb
20260506195223 66 0.0 0.0 0.00 0.00 0.00 10 1016.6
20260506194723 66 0.0 0.0 0.00 0.00 0.00 10 1016.6
20260506194223 66 0.0 0.0 0.00 0.00 0.00 10 1016.4
20260506193723 66 0.0 0.0 0.00 0.00 0.00 97 1016.4
20260506193223 67 0.0 0.0 0.00 0.00 0.00 95 1016.2
20260506192723 66 0.0 0.0 0.00 0.00 0.00 94 1016.2
20260506192223 67 0.0 0.0 0.00 0.00 0.00 93 1016.2
20260506191723 66 0.0 0.0 0.00 0.00 0.00 93 1016.1
20260506191223 66 0.0 0.0 0.00 0.00 0.00 94 1016.0
20260506190723 67 0.0 0.0 0.00 0.00 0.00 97 1016.0
20260506190223 67 0.0 0.0 0.00 0.00 0.00 10 1015.9
20260506185723 67 0.0 0.0 0.00 0.00 0.00 10 1015.9
20260506185223 66 0.0 0.0 0.00 0.00 0.00 97 1015.8
20260506184723 67 0.0 0.0 0.00 0.00 0.00 93 1015.8
20260506184223 67 0.0 0.0 0.00 0.00 0.00 94 1015.7
20260506183723 67 0.0 0.0 0.00 0.00 0.00 90 1015.6
20260506183223 67 0.0 0.0 0.00 0.00 0.00 87 1015.6
20260506182723 67 0.0 0.0 0.00 0.00 0.00 85 1015.5
20260506182223 67 0.0 0.0 0.00 0.00 0.00 86 1015.5
20260506181723 67 0.0 0.0 0.00 0.00 0.00 77 1015.4
20260506181223 68 0.0 0.0 0.00 0.00 0.00 73 1015.4
20260506180723 68 0.0 0.0 0.00 0.00 0.00 73 1015.3
20260506180223 68 0.0 0.0 0.00 0.00 0.00 68 1015.3
20260506175723 68 0.0 0.0 0.00 0.00 0.00 66 1015.1
20260506175223 68 0.0 0.0 0.00 0.00 0.00 64 1015.1
20260506174723 68 0.0 0.0 0.00 0.00 0.00 61 1015.1
20260506174223 68 0.0 0.0 0.00 0.00 0.00 60 1015.1
20260506173723 69 0.0 0.0 0.00 0.00 0.00 58 1015.0
20260506173223 69 0.0 0.0 0.00 0.00 0.00 56 1014.9
20260506172723 69 0.0 0.0 0.00 0.00 0.00 56 1014.9
20260506172223 69 0.0 0.0 0.00 0.00 0.00 53 1014.9
20260506171723 69 0.0 0.0 0.00 0.00 0.00 52 1014.9
20260506171223 69 0.0 0.0 0.00 0.00 0.00 53 1014.8
20260506170723 69 0.0 0.0 0.00 0.00 0.00 53 1014.9
20260506170223 69 0.0 0.0 0.00 0.00 0.00 56 1014.8
20260506165723 69 0.0 0.0 0.00 0.00 0.00 57 1014.7
20260506165223 69 0.0 0.0 0.00 0.00 0.00 59 1014.6
20260506164723 69 0.0 0.0 0.00 0.00 0.00 58 1014.6
20260506164223 69 0.0 0.0 0.00 0.00 0.00 60 1014.7
20260506163723 69 0.0 0.0 0.00 0.00 0.00 61 1014.8
20260506163223 69 0.0 0.0 0.00 0.00 0.00 61 1014.8
20260506162723 69 0.0 0.0 0.00 0.00 0.00 61 1014.7
20260506162223 69 0.0 0.0 0.00 0.00 0.00 60 1014.7
20260506161723 69 0.0 0.0 0.00 0.00 0.00 60 1014.7
20260506161222 69 0.0 0.0 0.00 0.00 0.00 60 1014.7
20260506160723 69 0.0 0.0 0.00 0.00 0.00 56 1014.7
20260506160223 69 0.0 0.0 0.00 0.00 0.00 55 1014.6
20260506155723 69 0.0 0.0 0.00 0.00 0.00 55 1014.7
20260506155223 69 0.0 0.0 0.00 0.00 0.00 54 1014.8
20260506154723 69 0.0 0.0 0.00 0.00 0.00 53 1014.7
20260506154222 70 0.0 0.0 0.00 0.00 0.00 53 1014.8
20260506153723 70 0.0 0.0 0.00 0.00 0.00 52 1014.7
20260506153223 70 0.0 0.0 0.00 0.00 0.00 52 1014.7
20260506152722 70 0.0 0.0 0.00 0.00 0.00 51 1014.7
20260506152223 70 0.0 0.0 0.00 0.00 0.00 51 1014.7
20260506151723 70 0.0 0.0 0.00 0.00 0.00 51 1014.8
20260506151222 70 0.0 0.0 0.00 0.00 0.00 51 1014.8
20260506150723 70 0.0 0.0 0.00 0.00 0.00 51 1014.9
20260506150222 71 0.0 0.0 0.00 0.00 0.00 52 1014.8
20260506145722 70 0.0 0.0 0.00 0.00 0.00 52 1014.8
20260506145222 70 0.0 0.0 0.00 0.00 0.00 49 1014.8
20260506144722 71 0.0 0.0 0.00 0.00 0.00 48 1014.9
20260506144222 70 0.0 0.0 0.00 0.00 0.00 48 1014.9
20260506143722 71 0.0 0.0 0.00 0.00 0.00 48 1014.9
20260506143222 71 0.0 0.0 0.00 0.00 0.00 48 1015.0
20260506142722 71 0.0 0.0 0.00 0.00 0.00 48 1014.9
20260506142222 71 0.0 0.0 0.00 0.00 0.00 47 1014.9
20260506141722 72 0.0 0.0 0.00 0.00 0.00 47 1014.9
20260506141222 72 0.0 0.0 0.00 0.00 0.00 47 1015.0
20260506140722 72 0.0 0.0 0.00 0.00 0.00 49 1015.0
20260506140222 71 0.0 0.0 0.00 0.00 0.00 49 1015.1
20260506135722 71 0.0 0.0 0.00 0.00 0.00 49 1015.1
20260506135222 71 0.0 0.0 0.00 0.00 0.00 47 1015.2
20260506134722 71 0.0 0.0 0.00 0.00 0.00 46 1015.2
20260506134222 71 0.0 0.0 0.00 0.00 0.00 44 1015.3
20260506133722 72 0.0 0.0 0.00 0.00 0.00 43 1015.4
20260506133222 71 0.0 0.0 0.00 0.00 0.00 43 1015.5
20260506132722 72 0.0 0.0 0.00 0.00 0.00 42 1015.4
20260506132222 72 0.0 0.0 0.00 0.00 0.00 42 1015.6
20260506131722 72 0.0 0.0 0.00 0.00 0.00 42 1015.5
20260506131223 72 0.0 0.0 0.00 0.00 0.00 42 1015.5
20260506130722 71 0.0 0.0 0.00 0.00 0.00 43 1015.7
20260506130222 71 0.0 0.0 0.00 0.00 0.00 43 1015.7
20260506125722 72 0.0 0.0 0.00 0.00 0.00 43 1015.7
20260506125223 70 0.0 0.0 0.00 0.00 0.00 43 1015.7
20260506124722 71 0.0 0.0 0.00 0.00 0.00 43 1015.8
20260506124222 71 0.0 0.0 0.00 0.00 0.00 44 1015.6
20260506123722 71 0.0 0.0 0.00 0.00 0.00 44 1015.7
20260506123222 72 0.0 0.0 0.00 0.00 0.00 43 1015.7
20260506122722 72 0.0 0.0 0.00 0.00 0.00 42 1015.8
20260506122222 71 0.0 0.0 0.00 0.00 0.00 44 1015.9
20260506121722 72 0.0 0.0 0.00 0.00 0.00 43 1015.7
20260506121222 71 0.0 0.0 0.00 0.00 0.00 42 1015.9
20260506120722 73 0.0 0.0 0.00 0.00 0.00 40 1015.9
20260506120222 74 0.0 0.0 0.00 0.00 0.00 39 1015.9
20260506115722 73 0.0 0.0 0.00 0.00 0.00 38 1015.9
20260506115222 73 0.0 0.0 0.00 0.00 0.00 39 1015.9
20260506114722 72 0.0 0.0 0.00 0.00 0.00 38 1016.0
20260506114222 75 0.0 0.0 0.00 0.00 0.00 38 1015.9
20260506113722 74 0.0 0.0 0.00 0.00 0.00 38 1016.0
20260506113222 74 0.0 0.0 0.00 0.00 0.00 40 1016.0
20260506112722 73 0.0 0.0 0.00 0.00 0.00 39 1015.9
20260506112222 73 0.0 0.0 0.00 0.00 0.00 40 1016.0
20260506111722 74 0.0 0.0 0.00 0.00 0.00 40 1016.1
20260506110722 74 0.0 0.0 0.00 0.00 0.00 40 1016.0
20260506110222 73 0.0 0.0 0.00 0.00 0.00 43 1016.1
20260506105722 73 0.0 0.0 0.00 0.00 0.00 42 1016.0
20260506105222 74 0.0 0.0 0.00 0.00 0.00 42 1016.0
20260506104722 77 0.0 0.0 0.00 0.00 0.00 38 1016.2
20260506104222 79 0.0 0.0 0.00 0.00 0.00 38 1016.1
20260506103722 77 0.0 0.0 0.00 0.00 0.00 40 1016.2
20260506103222 75 0.0 0.0 0.00 0.00 0.00 43 1016.2
20260506102722 73 0.0 0.0 0.00 0.00 0.00 42 1016.4
20260506102222 74 0.0 0.0 0.00 0.00 0.00 41 1016.5
20260506101722 78 0.0 0.0 0.00 0.00 0.00 40 1016.5
20260506101222 76 0.0 0.0 0.00 0.00 0.00 42 1016.5
20260506100722 75 0.0 0.0 0.00 0.00 0.00 42 1016.5
20260506100222 75 0.0 0.0 0.00 0.00 0.00 41 1016.5
20260506095722 76 0.0 0.0 0.00 0.00 0.00 41 1016.6
20260506095222 75 0.0 0.0 0.00 0.00 0.00 43 1016.6
20260506094722 74 0.0 0.0 0.00 0.00 0.00 43 1016.7
20260506094222 74 0.0 0.0 0.00 0.00 0.00 45 1016.7
20260506093722 72 0.0 0.0 0.00 0.00 0.00 46 1016.8
20260506093222 72 0.0 0.0 0.00 0.00 0.00 44 1017.0
20260506092722 75 0.0 0.0 0.00 0.00 0.00 44 1016.9
20260506092222 75 0.0 0.0 0.00 0.00 0.00 44 1016.9
20260506091722 74 0.0 0.0 0.00 0.00 0.00 47 1016.8
20260506091222 73 0.0 0.0 0.00 0.00 0.00 48 1016.7
20260506090722 72 0.0 0.0 0.00 0.00 0.00 51 1016.8
20260506090222 70 0.0 0.0 0.00 0.00 0.00 51 1016.8
20260506085722 72 0.0 0.0 0.00 0.00 0.00 49 1016.8
20260506085222 72 0.0 0.0 0.00 0.00 0.00 52 1016.8
20260506084722 70 0.0 0.0 0.00 0.00 0.00 56 1016.7
20260506084222 68 0.0 0.0 0.00 0.00 0.00 56 1016.9
20260506083722 69 0.0 0.0 0.00 0.00 0.00 54 1016.9
20260506083222 68 0.0 0.0 0.00 0.00 0.00 57 1016.7
20260506082722 67 0.0 0.0 0.00 0.00 0.00 58 1016.7
20260506082222 66 0.0 0.0 0.00 0.00 0.00 59 1016.8
20260506081722 66 0.0 0.0 0.00 0.00 0.00 60 1016.8
20260506081222 66 0.0 0.0 0.00 0.00 0.00 61 1016.7
20260506080722 65 0.0 0.0 0.00 0.00 0.00 61 1016.8
20260506080222 65 0.0 0.0 0.00 0.00 0.00 66 1016.9
20260506073222 64 0.0 0.0 0.00 0.00 0.00 71 1016.6
20260506072722 63 0.0 0.0 0.00 0.00 0.00 72 1016.5
20260506072222 63 0.0 0.0 0.00 0.00 0.00 75 1016.5
20260506071722 62 0.0 0.0 0.00 0.00 0.00 76 1016.5
20260506071222 62 0.0 0.0 0.00 0.00 0.00 76 1016.5
20260506070722 62 0.0 0.0 0.00 0.00 0.00 79 1016.4
20260506070222 63 0.0 0.0 0.00 0.00 0.00 79 1016.4
20260506062222 62 0.0 0.0 0.00 0.00 0.00 80 1015.9
20260506061722 62 0.0 0.0 0.00 0.00 0.00 82 1015.9
20260506061222 61 0.0 0.0 0.00 0.00 0.00 80 1015.9
20260506060722 61 0.0 0.0 0.00 0.00 0.00 94 1016.0
20260506060222 61 0.0 0.0 0.00 0.00 0.00 97 1016.0
20260506051222 60 0.0 0.0 0.00 0.00 0.00 10 1015.9
20260506050722 59 0.0 0.0 0.00 0.00 0.00 10 1015.8
20260506050222 60 0.0 0.0 0.00 0.00 0.00 10 1015.9
20260506044722 59 0.0 0.0 0.00 0.00 0.00 10 1015.8
20260506044222 59 0.0 0.0 0.00 0.00 0.00 10 1015.6
20260506043222 58 0.0 0.0 0.00 0.00 0.00 10 1015.6
20260506042722 58 0.0 0.0 0.00 0.00 0.00 10 1015.6
20260506042222 58 0.0 0.0 0.00 0.00 0.00 10 1015.4
20260506041722 58 0.0 0.0 0.00 0.00 0.00 10 1015.6
20260506041222 59 0.0 0.0 0.00 0.00 0.00 10 1015.6
20260506040722 59 0.0 0.0 0.00 0.00 0.00 10 1015.6
20260506040222 59 0.0 0.0 0.00 0.00 0.00 10 1015.6
20260506035722 59 0.0 0.0 0.00 0.00 0.00 10 1015.5
20260506035221 59 0.0 0.0 0.00 0.00 0.00 10 1015.5
20260506034721 59 0.0 0.0 0.00 0.00 0.00 10 1015.5
20260506034221 59 0.0 0.0 0.00 0.00 0.00 10 1015.4
20260506033722 59 0.0 0.0 0.00 0.00 0.00 10 1015.3
20260506033221 59 0.0 0.0 0.00 0.00 0.00 10 1015.4
20260506032722 59 0.0 0.0 0.00 0.00 0.00 10 1015.3
20260506032222 59 0.0 0.0 0.00 0.00 0.00 10 1015.4
20260506031721 59 0.0 0.0 0.00 0.00 0.00 10 1015.3
20260506031221 59 0.0 0.0 0.00 0.00 0.00 10 1015.4
20260506030721 59 0.0 0.0 0.00 0.00 0.00 10 1015.3
20260506030221 59 0.0 0.0 0.00 0.00 0.00 10 1015.4
20260506025721 59 0.0 0.0 0.00 0.00 0.00 10 1015.3
20260506025221 60 0.0 0.0 0.00 0.00 0.00 10 1015.3
20260506024721 60 0.0 0.0 0.00 0.00 0.00 10 1015.3
20260506024221 60 0.0 0.0 0.00 0.00 0.00 10 1015.2
20260506023721 60 0.0 0.0 0.00 0.00 0.00 10 1015.3
20260506023221 60 0.0 0.0 0.00 0.00 0.00 10 1015.2
20260506022722 60 0.0 0.0 0.00 0.00 0.00 10 1015.4
20260506022221 61 0.0 0.0 0.00 0.00 0.00 10 1015.3
20260506021721 61 0.0 0.0 0.00 0.00 0.00 10 1015.4
20260506021221 60 0.0 0.0 0.00 0.00 0.00 10 1015.3
20260506020721 60 0.0 0.0 0.00 0.00 0.00 10 1015.3
20260506020222 61 0.0 0.0 0.00 0.00 0.00 10 1015.3
20260506015721 60 0.0 0.0 0.00 0.00 0.00 10 1015.2
20260506015221 61 0.0 0.0 0.00 0.00 0.00 10 1015.2
20260506014721 61 0.0 0.0 0.00 0.00 0.00 10 1015.1
20260506014221 61 0.0 0.0 0.00 0.00 0.00 10 1015.0
20260506013721 61 0.0 0.0 0.00 0.00 0.00 10 1015.0
20260506013221 61 0.0 0.0 0.00 0.00 0.00 10 1015.0
20260506012721 61 0.0 0.0 0.00 0.00 0.00 10 1015.0
20260506012221 61 0.0 0.0 0.00 0.00 0.00 10 1015.1
20260506011721 61 0.0 0.0 0.00 0.00 0.00 10 1014.9
20260506011221 61 0.0 0.0 0.00 0.00 0.00 10 1014.9
20260506010721 62 0.0 0.0 0.00 0.00 0.00 10 1015.0
20260506010221 62 0.0 0.0 0.00 0.00 0.00 10 1015.0
20260506005721 62 0.0 0.0 0.00 0.00 0.00 10 1015.1
20260506005221 62 0.0 0.0 0.00 0.00 0.00 10 1015.1
20260506004721 62 0.0 0.0 0.00 0.00 0.00 10 1015.1
20260506004221 62 0.0 0.0 0.00 0.00 0.00 10 1015.3
20260506003721 62 0.0 0.0 0.00 0.00 0.00 10 1015.2
20260506003221 62 0.0 0.0 0.00 0.00 0.00 10 1015.2
20260506002721 63 0.0 0.0 0.00 0.00 0.00 10 1015.2
20260506002221 63 0.0 0.0 0.00 0.00 0.00 10 1015.1
20260506001721 63 0.0 0.0 0.00 0.00 0.00 10 1015.2
20260506001221 63 0.0 0.0 0.00 0.00 0.00 10 1015.3
20260506000721 63 0.0 0.0 0.00 0.00 0.00 10 1015.3
20260506000221 63 0.0 0.0 0.00 0.00 0.00 10 1015.3
20260505235721 64 0.0 0.0 0.00 0.00 0.00 10 1015.2
20260505235221 64 0.0 0.0 0.00 0.00 0.00 10 1015.2
20260505234721 64 0.0 0.0 0.00 0.00 0.00 10 1015.2
20260505234221 63 0.0 0.0 0.00 0.00 0.00 10 1015.2
20260505233721 63 0.0 0.0 0.00 0.00 0.00 10 1015.2
20260505233221 63 0.0 0.0 0.00 0.00 0.00 10 1015.2
20260505232721 63 0.0 0.0 0.00 0.00 0.00 10 1015.2
20260505232221 63 0.0 0.0 0.00 0.00 0.00 10 1015.1
20260505231721 63 0.0 0.0 0.00 0.00 0.00 10 1015.0
20260505231221 64 0.0 0.0 0.00 0.00 0.00 10 1014.8
20260505230721 64 0.0 0.0 0.00 0.00 0.00 10 1014.7
20260505230221 64 0.0 0.0 0.00 0.00 0.00 10 1014.8
20260505225721 64 0.0 0.0 0.00 0.00 0.00 10 1014.8
20260505225221 64 0.0 0.0 0.00 0.00 0.00 10 1014.8
20260505224721 64 0.0 0.0 0.00 0.00 0.00 10 1015.0
20260505224221 64 0.0 0.0 0.00 0.00 0.00 10 1015.2
20260505223721 64 0.0 0.0 0.00 0.00 0.00 10 1015.2
20260505223221 64 0.0 0.0 0.00 0.00 0.00 10 1015.4
20260505222721 64 0.0 0.0 0.00 0.00 0.00 10 1015.3
20260505222221 64 0.0 0.0 0.00 0.00 0.00 10 1015.4
20260505221721 64 0.0 0.0 0.00 0.00 0.00 10 1015.5
20260505221221 65 0.0 0.0 0.00 0.00 0.00 98 1015.4
20260505220721 65 0.0 0.0 0.00 0.00 0.00 98 1015.4
20260505220221 64 0.0 0.0 0.00 0.00 0.00 10 1015.5
20260505215721 65 0.0 0.0 0.00 0.00 0.00 10 1015.5
20260505215221 65 0.0 0.0 0.00 0.00 0.00 10 1015.6
20260505214721 65 0.0 0.0 0.00 0.00 0.00 10 1015.6
20260505214221 65 0.0 0.0 0.00 0.00 0.00 10 1015.6
20260505213721 64 0.0 0.0 0.00 0.00 0.00 10 1015.8
20260505213221 64 0.0 0.0 0.00 0.00 0.00 10 1015.7
20260505212721 64 0.0 0.0 0.00 0.00 0.00 10 1015.6
20260505212221 65 0.0 0.0 0.00 0.00 0.00 98 1015.4
20260505211721 65 0.0 0.0 0.00 0.00 0.00 94 1015.4
20260505211221 65 0.0 0.0 0.00 0.00 0.00 96 1015.5
20260505210721 65 0.0 0.0 0.00 0.00 0.00 95 1015.4
20260505210221 65 0.0 0.0 0.00 0.00 0.00 96 1015.4
20260505205721 65 0.0 0.0 0.00 0.00 0.00 98 1015.3
20260505205221 65 0.0 0.0 0.00 0.00 0.00 98 1015.3
20260505204721 65 0.0 0.0 0.00 0.00 0.00 10 1015.2
20260505204221 65 0.0 0.0 0.00 0.00 0.00 10 1015.2
20260505203721 65 0.0 0.0 0.00 0.00 0.00 10 1015.2
20260505203221 65 0.0 0.0 0.00 0.00 0.00 10 1015.2
20260505202721 65 0.0 0.0 0.00 0.00 0.00 10 1015.2
20260505202221 65 0.0 0.0 0.00 0.00 0.00 10 1015.1
20260505201721 65 0.0 0.0 0.00 0.00 0.00 10 1015.2
20260505201221 65 0.0 0.0 0.00 0.00 0.00 10 1015.2
20260505200721 65 0.0 0.0 0.00 0.00 0.00 10 1015.1
20260505200221 64 0.0 0.0 0.00 0.00 0.00 10 1015.1
20260505195721 65 0.0 0.0 0.00 0.00 0.00 10 1014.9